Time,TemperatureF,DewpointF,PressureIn,WindDirection,WindDirectionDegrees,WindSpeedMPH,WindSpeedGustMPH,Humidity,HourlyPrecipIn,Conditions,Clouds,dailyrainin,SoftwareType,DateUTC
2013-10-06 00:09:00,54.6,52.0,29.97,NE,44,4.0,4.0,91,0.00,,,0.00,Wunderground v.1.15,2013-10-06 07:09:00,
2013-10-06 00:20:00,54.5,51.9,29.97,NE,44,5.0,6.0,91,0.00,,,0.00,Wunderground v.1.15,2013-10-06 07:20:00,
2013-10-06 00:30:00,54.4,51.8,29.97,NE,45,5.0,8.0,91,0.00,,,0.00,Wunderground v.1.15,2013-10-06 07:30:00,
2013-10-06 00:39:00,54.4,51.8,29.97,NE,47,6.0,7.0,91,0.00,,,0.00,Wunderground v.1.15,2013-10-06 07:39:00,
2013-10-06 00:49:00,54.3,51.4,29.97,NE,48,6.0,9.0,90,0.00,,,0.00,Wunderground v.1.15,2013-10-06 07:49:00,
2013-10-06 01:00:00,54.5,51.6,29.96,NE,49,7.0,9.0,90,0.00,,,0.00,Wunderground v.1.15,2013-10-06 08:00:00,
2013-10-06 01:10:00,54.6,51.4,29.96,NE,53,8.0,9.0,89,0.00,,,0.00,Wunderground v.1.15,2013-10-06 08:10:00,
2013-10-06 01:20:00,54.6,51.4,29.96,NE,54,7.0,8.0,89,0.00,,,0.00,Wunderground v.1.15,2013-10-06 08:20:00,
2013-10-06 01:29:00,54.4,51.2,29.96,NE,54,7.0,7.0,89,0.00,,,0.00,Wunderground v.1.15,2013-10-06 08:29:00,
2013-10-06 01:40:00,54.3,51.1,29.96,NE,54,6.0,6.0,89,0.00,,,0.00,Wunderground v.1.15,2013-10-06 08:40:00,
2013-10-06 01:50:00,54.2,51.0,29.96,NE,54,6.0,6.0,89,0.00,,,0.00,Wunderground v.1.15,2013-10-06 08:50:00,
2013-10-06 02:00:00,54.1,50.9,29.95,NE,54,7.0,7.0,89,0.00,,,0.00,Wunderground v.1.15,2013-10-06 09:00:00,
2013-10-06 02:09:00,53.9,51.0,29.95,NE,54,5.0,5.0,90,0.00,,,0.00,Wunderground v.1.15,2013-10-06 09:09:00,
2013-10-06 02:19:00,53.7,50.8,29.95,NE,54,5.0,5.0,90,0.00,,,0.00,Wunderground v.1.15,2013-10-06 09:19:00,
2013-10-06 02:29:00,53.6,50.7,29.95,NE,54,6.0,6.0,90,0.00,,,0.00,Wunderground v.1.15,2013-10-06 09:29:00,
2013-10-06 02:39:00,53.6,50.7,29.94,NE,54,7.0,8.0,90,0.00,,,0.00,Wunderground v.1.15,2013-10-06 09:39:00,
2013-10-06 02:50:00,53.5,50.6,29.94,NE,54,5.0,7.0,90,0.00,,,0.00,Wunderground v.1.15,2013-10-06 09:50:00,
2013-10-06 02:59:00,53.5,50.6,29.94,NE,54,5.0,5.0,90,0.00,,,0.00,Wunderground v.1.15,2013-10-06 09:59:00,
2013-10-06 03:09:00,53.3,50.4,29.93,NE,54,5.0,7.0,90,0.00,,,0.00,Wunderground v.1.15,2013-10-06 10:09:00,
2013-10-06 03:20:00,53.1,50.2,29.93,NE,54,4.0,6.0,90,0.00,,,0.00,Wunderground v.1.15,2013-10-06 10:20:00,
2013-10-06 03:30:00,53.1,50.2,29.93,NE,54,5.0,5.0,90,0.00,,,0.00,Wunderground v.1.15,2013-10-06 10:30:00,
2013-10-06 03:40:00,52.9,50.0,29.92,NE,54,5.0,6.0,90,0.00,,,0.00,Wunderground v.1.15,2013-10-06 10:40:00,
2013-10-06 03:50:00,52.8,49.9,29.92,NE,54,5.0,5.0,90,0.00,,,0.00,Wunderground v.1.15,2013-10-06 10:50:00,
2013-10-06 03:59:00,52.7,49.8,29.91,NE,54,6.0,6.0,90,0.00,,,0.00,Wunderground v.1.15,2013-10-06 10:59:00,
2013-10-06 04:09:00,52.9,50.0,29.91,NE,54,6.0,7.0,90,0.00,,,0.00,Wunderground v.1.15,2013-10-06 11:09:00,
2013-10-06 04:19:00,53.0,50.1,29.91,ENE,71,8.0,8.0,90,0.00,,,0.00,Wunderground v.1.15,2013-10-06 11:19:00,
2013-10-06 04:30:00,53.0,50.1,29.90,ENE,73,6.0,6.0,90,0.00,,,0.00,Wunderground v.1.15,2013-10-06 11:30:00,
2013-10-06 04:39:00,52.8,49.9,29.90,ENE,73,6.0,6.0,90,0.00,,,0.00,Wunderground v.1.15,2013-10-06 11:39:00,
2013-10-06 04:50:00,52.7,49.8,29.90,ENE,73,6.0,9.0,90,0.00,,,0.00,Wunderground v.1.15,2013-10-06 11:50:00,
2013-10-06 04:59:00,52.7,49.8,29.90,ENE,74,6.0,7.0,90,0.00,,,0.00,Wunderground v.1.15,2013-10-06 11:59:00,
2013-10-06 05:10:00,52.7,49.8,29.89,ENE,75,6.0,11.0,90,0.00,,,0.00,Wunderground v.1.15,2013-10-06 12:10:00,
2013-10-06 05:20:00,52.5,49.7,29.89,ENE,75,6.0,7.0,90,0.00,,,0.00,Wunderground v.1.15,2013-10-06 12:20:00,
2013-10-06 05:30:00,52.3,49.5,29.89,ENE,75,6.0,6.0,90,0.00,,,0.00,Wunderground v.1.15,2013-10-06 12:30:00,
2013-10-06 05:39:00,52.3,49.8,29.89,ENE,75,7.0,7.0,91,0.00,,,0.00,Wunderground v.1.15,2013-10-06 12:39:00,
2013-10-06 05:50:00,52.1,49.6,29.88,ENE,74,7.0,7.0,91,0.00,,,0.00,Wunderground v.1.15,2013-10-06 12:50:00,
2013-10-06 06:00:00,51.9,49.4,29.88,ENE,73,6.0,6.0,91,0.00,,,0.00,Wunderground v.1.15,2013-10-06 13:00:00,
2013-10-06 06:09:00,51.8,49.3,29.88,ENE,73,6.0,6.0,91,0.00,,,0.00,Wunderground v.1.15,2013-10-06 13:09:00,
2013-10-06 06:20:00,51.8,49.3,29.88,ENE,73,7.0,11.0,91,0.00,,,0.00,Wunderground v.1.15,2013-10-06 13:20:00,
2013-10-06 06:30:00,51.8,49.3,29.87,ENE,67,8.0,8.0,91,0.00,,,0.00,Wunderground v.1.15,2013-10-06 13:30:00,
2013-10-06 06:39:00,51.7,49.2,29.87,ENE,68,7.0,12.0,91,0.00,,,0.00,Wunderground v.1.15,2013-10-06 13:39:00,
2013-10-06 06:50:00,51.6,49.1,29.87,ENE,69,7.0,9.0,91,0.00,,,0.00,Wunderground v.1.15,2013-10-06 13:50:00,
2013-10-06 07:00:00,51.6,49.1,29.87,ENE,69,7.0,7.0,91,0.00,,,0.00,Wunderground v.1.15,2013-10-06 14:00:00,
2013-10-06 07:10:00,51.5,49.3,29.87,ENE,67,7.0,8.0,92,0.00,,,0.00,Wunderground v.1.15,2013-10-06 14:10:00,
2013-10-06 07:20:00,51.4,48.9,29.87,ENE,66,8.0,8.0,91,0.00,,,0.00,Wunderground v.1.15,2013-10-06 14:20:00,
2013-10-06 07:30:00,51.2,49.0,29.86,ENE,65,7.0,12.0,92,0.00,,,0.00,Wunderground v.1.15,2013-10-06 14:30:00,
2013-10-06 07:40:00,51.2,49.0,29.86,ENE,71,7.0,7.0,92,0.00,,,0.00,Wunderground v.1.15,2013-10-06 14:40:00,
2013-10-06 07:49:00,51.2,49.0,29.86,ENE,69,6.0,11.0,92,0.00,,,0.00,Wunderground v.1.15,2013-10-06 14:49:00,
2013-10-06 08:00:00,51.2,49.0,29.86,ENE,69,7.0,9.0,92,0.00,,,0.00,Wunderground v.1.15,2013-10-06 15:00:00,
2013-10-06 08:10:00,51.5,49.3,29.86,ENE,65,6.0,6.0,92,0.00,,,0.00,Wunderground v.1.15,2013-10-06 15:10:00,
2013-10-06 08:20:00,51.9,49.6,29.86,ENE,71,6.0,6.0,92,0.00,,,0.00,Wunderground v.1.15,2013-10-06 15:20:00,
2013-10-06 08:29:00,52.2,49.7,29.86,ENE,70,7.0,7.0,91,0.00,,,0.00,Wunderground v.1.15,2013-10-06 15:29:00,
2013-10-06 08:39:00,52.3,49.8,29.86,ENE,73,6.0,6.0,91,0.00,,,0.00,Wunderground v.1.15,2013-10-06 15:39:00,
2013-10-06 08:49:00,52.8,49.9,29.85,ENE,72,6.0,6.0,90,0.00,,,0.00,Wunderground v.1.15,2013-10-06 15:49:00,
2013-10-06 09:00:00,53.1,49.9,29.86,East,80,6.0,6.0,89,0.00,,,0.00,Wunderground v.1.15,2013-10-06 16:00:00,
2013-10-06 09:09:00,53.7,50.2,29.85,ENE,65,7.0,12.0,88,0.00,,,0.00,Wunderground v.1.15,2013-10-06 16:09:00,
2013-10-06 09:19:00,54.2,50.4,29.85,ENE,72,7.0,7.0,87,0.00,,,0.00,Wunderground v.1.15,2013-10-06 16:19:00,
2013-10-06 09:29:00,54.8,50.7,29.85,East,89,7.0,7.0,86,0.00,,,0.00,Wunderground v.1.15,2013-10-06 16:29:00,
2013-10-06 09:40:00,55.4,51.0,29.84,East,84,8.0,8.0,85,0.00,,,0.00,Wunderground v.1.15,2013-10-06 16:40:00,
2013-10-06 09:50:00,55.8,51.0,29.84,East,81,8.0,10.0,84,0.00,,,0.00,Wunderground v.1.15,2013-10-06 16:50:00,
2013-10-06 10:00:00,56.2,51.1,29.84,East,83,9.0,11.0,83,0.00,,,0.00,Wunderground v.1.15,2013-10-06 17:00:00,
2013-10-06 10:10:00,57.1,51.7,29.84,ENE,77,8.0,9.0,82,0.00,,,0.00,Wunderground v.1.15,2013-10-06 17:10:00,
2013-10-06 10:19:00,57.5,51.4,29.84,East,85,8.0,9.0,80,0.00,,,0.00,Wunderground v.1.15,2013-10-06 17:19:00,
2013-10-06 10:29:00,58.2,52.4,29.84,East,90,8.0,12.0,81,0.00,,,0.00,Wunderground v.1.15,2013-10-06 17:29:00,
2013-10-06 10:39:00,58.8,52.3,29.84,ENE,78,7.0,7.0,79,0.00,,,0.00,Wunderground v.1.15,2013-10-06 17:39:00,
2013-10-06 10:49:00,59.2,52.3,29.84,East,79,8.0,10.0,78,0.00,,,0.00,Wunderground v.1.15,2013-10-06 17:49:00,
2013-10-06 11:00:00,59.4,52.9,29.84,East,84,9.0,9.0,79,0.00,,,0.00,Wunderground v.1.15,2013-10-06 18:00:00,
2013-10-06 11:10:00,60.4,53.5,29.84,East,82,8.0,8.0,78,0.00,,,0.00,Wunderground v.1.15,2013-10-06 18:10:00,
2013-10-06 11:20:00,60.9,54.0,29.83,East,83,7.0,7.0,78,0.00,,,0.00,Wunderground v.1.15,2013-10-06 18:20:00,
2013-10-06 11:29:00,62.2,54.5,29.83,East,82,7.0,7.0,76,0.00,,,0.00,Wunderground v.1.15,2013-10-06 18:29:00,
2013-10-06 11:40:00,63.6,54.4,29.83,East,87,5.0,5.0,72,0.00,,,0.00,Wunderground v.1.15,2013-10-06 18:40:00,
2013-10-06 11:50:00,64.5,55.7,29.83,East,92,5.0,7.0,73,0.00,,,0.00,Wunderground v.1.15,2013-10-06 18:50:00,
2013-10-06 11:59:00,67.3,52.5,29.83,South,176,9.0,11.0,59,0.00,,,0.00,Wunderground v.1.15,2013-10-06 18:59:00,
2013-10-06 12:09:00,66.9,52.1,29.83,South,184,10.0,12.0,59,0.00,,,0.00,Wunderground v.1.15,2013-10-06 19:09:00,
2013-10-06 12:19:00,66.6,52.7,29.82,South,188,11.0,11.0,61,0.00,,,0.00,Wunderground v.1.15,2013-10-06 19:19:00,
2013-10-06 12:29:00,66.4,52.5,29.82,South,183,13.0,14.0,61,0.00,,,0.00,Wunderground v.1.15,2013-10-06 19:29:00,
2013-10-06 12:40:00,65.9,52.1,29.83,SSW,202,14.0,14.0,61,0.00,,,0.00,Wunderground v.1.15,2013-10-06 19:40:00,
2013-10-06 12:50:00,65.3,52.4,29.83,SSW,201,16.0,17.0,63,0.00,,,0.00,Wunderground v.1.15,2013-10-06 19:50:00,
2013-10-06 12:59:00,65.1,53.5,29.82,South,187,15.0,16.0,66,0.00,,,0.00,Wunderground v.1.15,2013-10-06 19:59:00,
2013-10-06 13:10:00,64.8,54.4,29.82,SSW,205,14.0,14.0,69,0.00,,,0.00,Wunderground v.1.15,2013-10-06 20:10:00,
2013-10-06 13:20:00,64.3,55.8,29.82,SSW,202,16.0,21.0,74,0.00,,,0.00,Wunderground v.1.15,2013-10-06 20:20:00,
2013-10-06 13:30:00,63.8,56.1,29.82,SSW,192,17.0,17.0,76,0.00,,,0.00,Wunderground v.1.15,2013-10-06 20:30:00,
2013-10-06 13:39:00,63.7,56.4,29.81,South,173,15.0,15.0,77,0.00,,,0.00,Wunderground v.1.15,2013-10-06 20:39:00,
2013-10-06 13:49:00,63.4,56.8,29.81,South,189,16.0,16.0,79,0.00,,,0.00,Wunderground v.1.15,2013-10-06 20:49:00,
2013-10-06 13:59:00,63.0,56.7,29.83,SSW,207,16.0,24.0,80,0.00,,,0.00,Wunderground v.1.15,2013-10-06 20:59:00,
2013-10-06 14:09:00,61.6,56.4,29.82,SSW,206,17.0,18.0,83,0.00,,,0.00,Wunderground v.1.15,2013-10-06 21:09:00,
2013-10-06 14:20:00,62.5,56.6,29.83,SSW,192,18.0,22.0,81,0.00,,,0.00,Wunderground v.1.15,2013-10-06 21:20:00,
2013-10-06 14:30:00,61.6,56.0,29.83,South,184,17.0,20.0,82,0.00,,,0.00,Wunderground v.1.15,2013-10-06 21:30:00,
2013-10-06 14:40:00,60.8,56.3,29.83,SSW,202,16.0,20.0,85,0.00,,,0.00,Wunderground v.1.15,2013-10-06 21:40:00,
2013-10-06 14:49:00,61.1,56.2,29.83,SSW,208,17.0,17.0,84,0.00,,,0.00,Wunderground v.1.15,2013-10-06 21:49:00,
2013-10-06 15:00:00,61.1,55.9,29.83,SSW,198,16.0,16.0,83,0.00,,,0.00,Wunderground v.1.15,2013-10-06 22:00:00,
2013-10-06 15:09:00,60.5,55.6,29.83,SW,225,15.0,15.0,84,0.00,,,0.00,Wunderground v.1.15,2013-10-06 22:09:00,
2013-10-06 15:19:00,60.4,55.2,29.83,South,181,17.0,17.0,83,0.00,,,0.00,Wunderground v.1.15,2013-10-06 22:19:00,
2013-10-06 15:30:00,60.4,55.2,29.83,SSW,207,16.0,16.0,83,0.00,,,0.00,Wunderground v.1.15,2013-10-06 22:30:00,
2013-10-06 15:40:00,60.1,55.2,29.83,SSW,196,15.0,15.0,84,0.00,,,0.00,Wunderground v.1.15,2013-10-06 22:40:00,
2013-10-06 15:50:00,59.5,55.0,29.83,SSW,212,13.0,16.0,85,0.00,,,0.00,Wunderground v.1.15,2013-10-06 22:50:00,
2013-10-06 16:00:00,59.3,54.8,29.84,SSW,198,15.0,15.0,85,0.00,,,0.00,Wunderground v.1.15,2013-10-06 23:00:00,
2013-10-06 16:10:00,59.4,54.6,29.83,South,190,13.0,13.0,84,0.00,,,0.00,Wunderground v.1.15,2013-10-06 23:10:00,
2013-10-06 16:19:00,59.5,55.0,29.84,SSW,206,14.0,17.0,85,0.00,,,0.00,Wunderground v.1.15,2013-10-06 23:19:00,
2013-10-06 16:30:00,59.8,55.0,29.83,SSW,198,14.0,14.0,84,0.00,,,0.00,Wunderground v.1.15,2013-10-06 23:30:00,
2013-10-06 16:40:00,60.0,55.5,29.83,South,187,14.0,15.0,85,0.00,,,0.00,Wunderground v.1.15,2013-10-06 23:40:00,
2013-10-06 16:50:00,59.8,55.3,29.83,SSW,198,14.0,14.0,85,0.00,,,0.00,Wunderground v.1.15,2013-10-06 23:50:00,
2013-10-06 16:59:00,59.7,55.8,29.82,SSW,195,11.0,13.0,87,0.00,,,0.00,Wunderground v.1.15,2013-10-06 23:59:00,
2013-10-06 17:10:00,59.6,55.7,29.82,SSW,192,11.0,11.0,87,0.00,,,0.00,Wunderground v.1.15,2013-10-07 00:10:00,
2013-10-06 17:20:00,59.4,55.5,29.82,South,190,11.0,12.0,87,0.00,,,0.00,Wunderground v.1.15,2013-10-07 00:20:00,
2013-10-06 17:29:00,59.5,55.9,29.82,South,177,12.0,19.0,88,0.00,,,0.00,Wunderground v.1.15,2013-10-07 00:29:00,
2013-10-06 17:39:00,59.5,55.6,29.82,SSW,202,13.0,13.0,87,0.00,,,0.00,Wunderground v.1.15,2013-10-07 00:39:00,
2013-10-06 17:49:00,59.4,55.8,29.81,SSW,195,13.0,13.0,88,0.00,,,0.00,Wunderground v.1.15,2013-10-07 00:49:00,
2013-10-06 18:00:00,59.5,56.3,29.81,South,184,12.0,12.0,89,0.00,,,0.00,Wunderground v.1.15,2013-10-07 01:00:00,
2013-10-06 18:10:00,59.4,56.2,29.81,SSW,199,13.0,13.0,89,0.00,,,0.00,Wunderground v.1.15,2013-10-07 01:10:00,
2013-10-06 18:20:00,59.3,56.1,29.81,South,177,14.0,16.0,89,0.00,,,0.00,Wunderground v.1.15,2013-10-07 01:20:00,
2013-10-06 18:30:00,59.1,56.2,29.81,South,181,12.0,12.0,90,0.00,,,0.00,Wunderground v.1.15,2013-10-07 01:30:00,
2013-10-06 18:40:00,59.1,56.2,29.81,South,187,12.0,15.0,90,0.00,,,0.00,Wunderground v.1.15,2013-10-07 01:40:00,
2013-10-06 18:50:00,59.1,56.2,29.80,SSW,192,13.0,13.0,90,0.00,,,0.00,Wunderground v.1.15,2013-10-07 01:50:00,
2013-10-06 19:00:00,59.1,56.2,29.80,SSW,192,14.0,14.0,90,0.00,,,0.00,Wunderground v.1.15,2013-10-07 02:00:00,
2013-10-06 19:09:00,59.1,56.2,29.80,South,190,13.0,14.0,90,0.00,,,0.00,Wunderground v.1.15,2013-10-07 02:09:00,
2013-10-06 19:19:00,59.0,56.4,29.79,South,189,14.0,14.0,91,0.00,,,0.00,Wunderground v.1.15,2013-10-07 02:19:00,
2013-10-06 19:29:00,59.0,56.4,29.80,South,187,14.0,14.0,91,0.00,,,0.00,Wunderground v.1.15,2013-10-07 02:29:00,
2013-10-06 19:39:00,59.0,56.4,29.79,SSW,208,15.0,16.0,91,0.00,,,0.00,Wunderground v.1.15,2013-10-07 02:39:00,
2013-10-06 19:50:00,59.1,56.5,29.79,South,180,15.0,15.0,91,0.00,,,0.00,Wunderground v.1.15,2013-10-07 02:50:00,
2013-10-06 19:59:00,59.0,56.1,29.78,SSW,204,17.0,17.0,90,0.00,,,0.00,Wunderground v.1.15,2013-10-07 02:59:00,
2013-10-06 20:09:00,58.8,55.9,29.78,SSW,207,16.0,16.0,90,0.00,,,0.00,Wunderground v.1.15,2013-10-07 03:09:00,
2013-10-06 20:19:00,58.6,56.0,29.78,South,188,16.0,16.0,91,0.00,,,0.00,Wunderground v.1.15,2013-10-07 03:19:00,
2013-10-06 20:30:00,58.3,56.0,29.79,South,188,15.0,19.0,92,0.00,,,0.01,Wunderground v.1.15,2013-10-07 03:30:00,
2013-10-06 20:40:00,57.5,55.5,29.78,SSW,207,16.0,16.0,93,0.06,,,0.02,Wunderground v.1.15,2013-10-07 03:40:00,
2013-10-06 20:49:00,57.4,55.7,29.78,SSW,200,15.0,20.0,94,0.05,,,0.02,Wunderground v.1.15,2013-10-07 03:49:00,
2013-10-06 20:59:00,57.3,55.9,29.78,SSW,211,16.0,21.0,95,0.00,,,0.03,Wunderground v.1.15,2013-10-07 03:59:00,
2013-10-06 21:10:00,57.2,55.8,29.78,South,191,15.0,15.0,95,0.17,,,0.06,Wunderground v.1.15,2013-10-07 04:10:00,
2013-10-06 21:20:00,57.1,56.0,29.78,SSW,196,16.0,16.0,96,0.19,,,0.09,Wunderground v.1.15,2013-10-07 04:20:00,
2013-10-06 21:30:00,57.3,56.2,29.78,SSW,198,16.0,21.0,96,0.12,,,0.11,Wunderground v.1.15,2013-10-07 04:30:00,
2013-10-06 21:40:00,57.3,56.2,29.78,South,185,17.0,17.0,96,0.05,,,0.11,Wunderground v.1.15,2013-10-07 04:40:00,
2013-10-06 21:50:00,56.4,55.3,29.79,SW,235,16.0,16.0,96,0.00,,,0.12,Wunderground v.1.15,2013-10-07 04:50:00,
2013-10-06 22:00:00,56.1,55.0,29.79,SSW,212,14.0,14.0,96,0.00,,,0.12,Wunderground v.1.15,2013-10-07 05:00:00,
2013-10-06 22:09:00,56.2,55.1,29.79,SW,223,11.0,13.0,96,0.00,,,0.12,Wunderground v.1.15,2013-10-07 05:09:00,
2013-10-06 22:19:00,56.4,55.3,29.79,SSW,208,10.0,10.0,96,0.00,,,0.12,Wunderground v.1.15,2013-10-07 05:19:00,
2013-10-06 22:29:00,56.4,55.3,29.79,South,190,9.0,11.0,96,0.00,,,0.12,Wunderground v.1.15,2013-10-07 05:29:00,
2013-10-06 22:40:00,56.4,55.3,29.79,South,181,8.0,11.0,96,0.00,,,0.12,Wunderground v.1.15,2013-10-07 05:40:00,
2013-10-06 22:49:00,56.6,55.5,29.79,SSW,197,10.0,11.0,96,0.00,,,0.12,Wunderground v.1.15,2013-10-07 05:49:00,
2013-10-06 22:59:00,56.9,55.8,29.80,SSW,203,11.0,11.0,96,0.00,,,0.12,Wunderground v.1.15,2013-10-07 05:59:00,
2013-10-06 23:09:00,57.1,56.0,29.79,SSW,211,10.0,14.0,96,0.00,,,0.12,Wunderground v.1.15,2013-10-07 06:09:00,
2013-10-06 23:19:00,57.2,56.1,29.80,SSW,210,12.0,12.0,96,0.00,,,0.12,Wunderground v.1.15,2013-10-07 06:19:00,
2013-10-06 23:29:00,57.3,56.2,29.80,SSW,212,11.0,11.0,96,0.00,,,0.12,Wunderground v.1.15,2013-10-07 06:29:00,
2013-10-06 23:40:00,57.2,56.1,29.80,SW,217,11.0,12.0,96,0.00,,,0.12,Wunderground v.1.15,2013-10-07 06:40:00,
2013-10-06 23:50:00,57.3,56.2,29.80,SSW,212,10.0,10.0,96,0.00,,,0.12,Wunderground v.1.15,2013-10-07 06:50:00,